Regional Weather Roundup
Issued by NWS

Home | Current Version | Previous Version | Graphics & Text | Print | Product List | Glossary On
Versions: 1 2 3 4 5 6 7 8 9 10 11 12 13 14 15 16 17 18 19 20 21 22 23 24 25 26 27 28 29 30 31 32 33 34 35 36 37 38 39 40 41 42 43 44 45 46 47 48 49 50
000
ASUS43 KOAX 211010
RWRNE

WEATHER ROUNDUP FOR NEBRASKA
NATIONAL WEATHER SERVICE OMAHA NE
400 AM CST SUN JAN 21 2018

NOTES: SATELLITE DATA IS BEING USED TO AUGMENT CLOUD COVER ABOVE
       12000 FEET.
       "FAIR" INDICATES FEW OR NO CLOUDS BELOW 12,000 FEET WITH NO
       SIGNIFICANT WEATHER AND/OR OBSTRUCTIONS TO VISIBILITY.


NEZ001>004-019>022-054>056-211100-
NEBRASKA PANHANDLE

CITY           SKY/WX    TMP DP  RH WIND       PRES   REMARKS
SCOTTSBLUFF    LGT SNOW  31  29  92 NE14      29.89R FOG     WCI  21
ALLIANCE       LGT SNOW  29  29 100 NE16      29.87S FOG     WCI  17
CHADRON        LGT SNOW  30  29  96 NE7       29.95S FOG     WCI  23
GORDON         CLOUDY    31  28  92 N12       29.91F WCI  21
KIMBALL        CLOUDY    29  28  97 N7        29.84S WCI  22
SIDNEY         CLOUDY    30  28  92 NE12      29.84S WCI  20
$$

NEZ057>060-069>072-079>082-211100-
SOUTHWEST NEBRASKA

CITY           SKY/WX    TMP DP  RH WIND       PRES   REMARKS
NORTH PLATTE   MOCLDY    33  29  85 N17       29.83S WCI  22
IMPERIAL       CLOUDY    30  28  92 NE14      29.81F WCI  19
LEXINGTON      CLOUDY    33  30  86 NE8       29.81R WCI  27
MCCOOK         CLOUDY    31  28  89 N12       29.80R WCI  22
OGALLALA       CLOUDY    34  31  88 NE14      29.83F WCI  25
$$

NEZ005>010-023>029-035>040-094-211100-
NORTH CENTRAL NEBRASKA

CITY           SKY/WX    TMP DP  RH WIND       PRES   REMARKS
VALENTINE      CLOUDY    34  31  88 N14       29.91F WCI  25
AINSWORTH      CLOUDY    33  32  98 N13       29.89F WCI  23
BROKEN BOW     MOCLDY    33  28  81 N16       29.82S WCI  23
O`NEILL        CLOUDY    32  32 100 N12       29.89S WCI  23
ORD            CLEAR     32  28  85 N12       29.83S WCI  23
THEDFORD       CLOUDY    34  32  93 N14       29.86F WCI  24
$$

NEZ041-046>049-061>064-073>077-083>087-211100-
SOUTH CENTRAL NEBRASKA

CITY           SKY/WX    TMP DP  RH WIND       PRES   REMARKS
GRAND ISLAND   CLOUDY    33  31  92 N13       29.81S WCI  24
AURORA         CLOUDY    34  31  88 N10       29.80S WCI  26
HASTINGS       CLOUDY    34  30  85 NE10      29.78F WCI  26
HEBRON         CLOUDY    40  40  97 NE8       29.76F FOG     WCI  35
HOLDREGE       CLOUDY    33  32  96 N16       29.77F WCI  22
KEARNEY        CLOUDY    33  30  88 N13       29.79F WCI  24
YORK           MOCLDY    37  36  93 N9        29.80F WCI  31
$$

NEZ011>018-030>034-042>045-211100-
NORTHEAST NEBRASKA

CITY           SKY/WX    TMP DP  RH WIND       PRES   REMARKS
NORFOLK        CLOUDY    36  29  75 N7        29.84F WCI  30
ALBION         CLOUDY    32  30  91 NE5       29.84S WCI  27
BLAIR          CLOUDY    39  36  88 NE8       29.83F WCI  33
COLUMBUS       CLOUDY    35  30  82 N7        29.84S WCI  29
FREMONT        CLOUDY    37  33  86 CALM      29.84F
TEKAMAH        CLOUDY    35  30  82 N7        29.86F WCI  29
WAYNE          CLOUDY    32  31  96 N8        29.86F WCI  24
$$

NEZ050>053-065>068-078-088>093-211100-
SOUTHEAST NEBRASKA

CITY           SKY/WX    TMP DP  RH WIND       PRES   REMARKS
LINCOLN        CLOUDY    40  36  86 NE10      29.81F WCI  33
OMAHA EPPLEY   CLOUDY    37  34  89 N7        29.84F WCI  32
BEATRICE       FOG       41  41 100 E7        29.77F VSB 3/4
FALLS CITY     CLOUDY    40  39  97 E7        29.79F FOG
NEBRASKA CITY  CLOUDY    40  40 100 NE7       29.80F FOG
PLATTSMOUTH    CLOUDY    39  38  98 N6        29.81F FOG     WCI  35
$$

NEZ044-045-051>053-067-211100-
OMAHA AREA

CITY           SKY/WX    TMP DP  RH WIND       PRES   REMARKS
OMAHA EPPLEY   CLOUDY    37  34  89 N7        29.84F WCI  32
BLAIR          CLOUDY    39  36  88 NE8       29.83F WCI  33
FREMONT        CLOUDY    37  33  86 CALM      29.84F
MILLARD        CLOUDY    41  38  86 CALM      29.83F
OFFUTT AFB     CLOUDY    40  37  89 N3        29.82F
PLATTSMOUTH    CLOUDY    39  38  98 N6        29.81F FOG     WCI  35
WAHOO          CLOUDY    39  34  83 N7        29.82F WCI  34
$$




USA.gov is the U.S. government's official web portal to all federal, state and local government web resources and services.